[keps] orb06334.2l.amsat

Ray Hoad r.hoad at att.net
Thu Nov 30 18:00:09 PST 2006


SB KEPS @ AMSAT  $ORB06334.N
2Line Orbital Elements 06334.AMSAT

HR AMSAT ORBITAL ELEMENTS FOR AMATEUR SATELLITES IN NASA FORMAT
FROM WA5QGD FORT WORTH,TX November 30, 2006
Send SUBSCRIBE KEPS/UNSUBSCRIBE KEPS to majordomo at amsat.org only
BID: ORB06334.N

DECODE 2-LINE ELSETS WITH THE FOLLOWING KEY:
1 AAAAAU 00  0  0 BBBBB.BBBBBBBB  .CCCCCCCC  00000-0  00000-0 0  DDDZ
2 AAAAA EEE.EEEE FFF.FFFF GGGGGGG HHH.HHHH III.IIII JJ.JJJJJJJJKKKKKZ
KEY: A-CATALOGNUM B-EPOCHTIME C-DECAY D-ELSETNUM E-INCLINATION F-RAAN
G-ECCENTRICITY H-ARGPERIGEE I-MNANOM J-MNMOTION K-ORBITNUM Z-CHECKSUM

TO ALL RADIO AMATEURS BT

AO-07
1 07530U 74089B   06333.54553124 -.00000028  00000-0  10000-3 0 07428
2 07530 101.5465 012.2077 0011925 284.7675 075.2076 12.53571975466104
UO-11
1 14781U 84021B   06333.61466647  .00000373  00000-0  57195-4 0 02381
2 14781 098.2037 347.3257 0010188 093.5230 266.7171 14.79491174220228
RS-10/11
1 18129U 87054A   06334.72928620  .00000043  00000-0  30800-4 0  1575
2 18129 082.9262 204.9615 0012198 358.2373 001.8737 13.72781495974004
RS-15
1 23439U 94085A   06333.95831937 -.00000039  00000-0  10597-3 0 00288
2 23439 064.8210 329.1223 0165191 225.6536 133.0765 11.27552180491234
FO-29
1 24278U 96046B   06333.97337013 -.00000012  00000-0  26090-4 0 03782
2 24278 098.5221 315.6564 0349861 239.6618 116.9487 13.52925658507967
SO-33
1 25509U 98061B   06333.90602462  .00000189  00000-0  26006-4 0 08062
2 25509 031.4307 272.4320 0354985 125.4046 238.0269 14.28139364422747
VO-52
1 28650U 05017B   06333.76732221  .00000430  00000-0  61673-4 0  4910
2 28650 097.8551 043.7178 0027173 180.6876 179.4345 14.81218552 84893
AO-16
1 20439U 90005D   06333.56932441  .00000010  00000-0  19021-4 0 09078
2 20439 098.1885 334.2318 0011900 063.7863 296.4543 14.31741327879984
LO-19
1 20442U 90005G   06334.61957415  .00000084  00000-0  46276-4 0  8383
2 20442 098.1840 344.7388 0012834 060.3818 299.8659 14.31983634880270
AO-27
1 22825U 93061C   06333.53137142  .00000135  00000-0  69369-4 0  5564
2 22825 098.3050 307.4202 0009102 128.3141 231.8883 14.29191690686977
IO-26
1 22826U 93061D   06333.89295293  .00000037  00000-0  30642-4 0 02500
2 22826 098.2990 308.9167 0009455 124.2657 235.9425 14.29436304687101
PO-28
1 22829U 93061G   06333.66637136  .00000158  00000-0  76872-4 0 05348
2 22829 098.2893 309.8926 0010764 103.0382 257.2012 14.30133912687294
GO-32
1 25397U 98043D   06333.55538023 -.00000048  00000-0 -28908-5 0 01703
2 25397 098.4455 024.1937 0002126 091.5318 268.6118 14.23115325435761
MO-46
1 26548U 00057D   06334.60382025  .00000209  00000-0  43558-4 0  6604
2 26548 064.5576 076.9842 0037181 223.6840 136.1287 14.83057644334089
NO-44
1 26931U 01043C   06333.40373338  .00000022  00000-0  40992-4 0 04611
2 26931 067.0529 302.1119 0004998 261.2456 098.8072 14.29462872269540
SO-50
1 27607U 02058C   06333.48461040  .00000051  00000-0  29960-4 0 01829
2 27607 064.5593 331.3157 0035223 074.4792 286.0196 14.71199594211744
CO-55
1 27844U 03031E   06333.62498611  .00000068  00000-0  52132-4 0 09052
2 27844 098.7204 339.6527 0009500 311.1296 048.9069 14.20473830177147
CO-57
1 27848U 03031J   06334.53626790  .00000058  00000-0  47507-4 0  8696
2 27848 098.7191 339.8244 0009445 311.5483 048.4883 14.20298681177254
AO-51
1 28375U 04025K   06334.70983986  .00000047  00000-0  26809-4 0  6887
2 28375 098.1417 018.9598 0085162 063.5655 297.4242 14.40544615127137
CO-56
1 28941U 06005C   06333.87309920  .00016945  25649-5  20450-3 0 02834
2 28941 098.1588 008.7740 0255993 254.3016 102.9860 15.31169777042846
HO-59
1 29484U 06041F   06333.75617450  .00031889  28384-5  28463-3 0   848
2 29484 098.3142 350.4240 0262462 252.8476 104.3630 15.35775782 10312
NOAA-10
1 16969U 86073A   06333.65508485 -.00000101  00000-0 -23056-4 0 04440
2 16969 098.7563 345.6198 0012949 032.0469 328.1495 14.27309745050768
NOAA-11
1 19531U 88089A   06333.49173656 -.00000011  00000-0  17245-4 0 04067
2 19531 098.8219 060.0807 0011065 237.4101 122.5992 14.14827228937918
NOAA-12
1 21263U 91032A   06333.68457888 -.00000073  00000-0 -12114-4 0 09027
2 21263 098.7437 326.3772 0012464 330.1813 029.8658 14.25515679807828
MET-3/5
1 21655U 91056A   06333.90405654  .00000051  00000-0  10000-3 0 02205
2 21655 082.5539 143.7405 0013254 351.4283 008.6611 13.17008116735171
MET-2/21
1 22782U 93055A   06334.57479386  .00000091  00000-0  68308-4 0  6826
2 22782 082.5481 199.4590 0023827 073.7810 286.5979 13.83612728669059
OKEAN-4
1 23317U 94066A   06334.80832556  .00000513  00000-0  60804-4 0  1188
2 23317 082.5369 121.6033 0022147 182.2948 177.8170 14.82432993654660
NOAA-14
1 23455U 94089A   06333.56331904  .00000125  00000-0  90219-4 0 03981
2 23455 099.0175 033.4271 0008778 306.2137 053.8207 14.13682058614435
SICH-1
1 23657U 95046A   06334.78061304  .00000243  00000-0  27955-4 0  9229
2 23657 082.5278 262.5172 0023880 171.7048 188.4576 14.81421021606657
NOAA-15
1 25338U 98030A   06333.77848918 -.00000083  00000-0 -17395-4 0 07718
2 25338 098.5246 331.1860 0009821 250.1600 109.8504 14.24612789444297
RESURS
1 25394U 98043A   06333.74489885  .00000016  00000-0  25011-4 0  5148
2 25394 098.4717 030.8674 0002333 059.9535 300.1875 14.24119280435969
FENGYUN1
1 25730U 99025A   06334.73842486  .00000314  00000-0  19485-3 0  8920
2 25730 098.6435 321.1041 0014780 029.5435 330.6600 14.11819691389519
OKEAN-0
1 25860U 99039A   06333.57689323  .00000095  00000-0  21861-4 0 09164
2 25860 097.7307 340.1872 0000903 038.8241 321.3031 14.73408517396101
NOAA-16
1 26536U 00055A   06333.77483824  .00000039  00000-0  45866-4 0 01649
2 26536 099.0922 302.5291 0010967 017.9963 342.1591 14.12385376318956
NOAA-17
1 27453U 02032A   06333.59626761  .00000158  00000-0  87777-4 0 01834
2 27453 098.6055 042.4572 0011155 317.3348 042.7000 14.23831557230313
NOAA-18
1 28654U 05018A   06333.57349956 -.00000062  00000-0 -10547-4 0 07407
2 28654 098.8077 273.4379 0015065 111.6292 248.6489 14.11012726078708
HUBBLE
1 20580U 90037B   06333.62695102  .00000511  00000-0  26965-4 0  7504
2 20580 028.4668 051.3316 0003857 142.2850 217.8012 15.00141005709964
UARS
1 21701U 91063B   06334.84187347  .00010272  00000-0  18038-3 0  9320
2 21701 056.9746 093.1838 0100783 166.4744 193.9050 15.45723746835055
PO-34
1 25520U 98064B   06334.75018873  .00000623  00000-0  21107-4 0  6225
2 25520 028.4613 356.7311 0005185 248.7774 111.2246 15.16857869447361
ISS
1 25544U 98067A   06334.82320800  .00033061  00000-0  18911-3 0  1661
2 25544 051.6351 048.3912 0012087 282.3896 183.2361 15.78437153459451
OO-38
1 26063U 00004C   06334.84430512  .00000014  00000-0  25286-4 0  7792
2 26063 100.2076 296.0120 0036972 358.5622 001.5448 14.35786912358580
NO-45
1 26932U 01043D   06334.87855033 -.00000011  00000-0  28092-4 0  4684
2 26932 067.0523 298.0462 0003966 242.1564 117.9137 14.29542081269794
UWE-1
1 28892U 05043C   06333.70620747  .00000236  00000-0  59542-4 0  6154
2 28892 098.1480 229.0782 0018129 017.8252 342.3598 14.59429956 58110
CO-58
1 28895U 05043F   06333.69159728  .00000249  00000-0  62230-4 0  5972
2 28895 098.1486 229.2014 0018559 017.9691 342.2167 14.59479780 57990
NCUBE2
1 28897U 05043H   06334.67944179  .00000236  00000-0  59228-4 0  1510
2 28897 098.1479 230.1447 0017923 016.6302 343.5494 14.59637823 50415
/EX






More information about the Keps mailing list